Vancouver Sea Island Ccg, British Columbia

10:10 PM PST on February 10, 2016 (GMT -0800)
Vancouver International

Weather History for CYVR - August, 2013

Change the Weather History Date:

Friday, August 30, 2013

  Actual Average Record
Temperature  
Mean Temperature 65 °F -  
Max Temperature 72 °F 67 °F 78 °F (2007)
Min Temperature 58 °F 54 °F 51 °F (1999)
Growing Degree Days 15 (Base 50)    
Moisture  
Dew Point 59 °F    
Average Humidity 84    
Maximum Humidity 94    
Minimum Humidity 54    
Precipitation  
Precipitation 0.47 in - - ()
Sea Level Pressure  
Sea Level Pressure 30.10 in    
Wind  
Wind Speed 6 mph ()    
Max Wind Speed 13 mph    
Max Gust Speed 21 mph    
Visibility 14.5 miles    
Events Rain , Thunderstorm    
Averages and records for this station are not official NWS values.
T = Trace of Precipitation, MM = Missing Value Source: Averaged Metar Reports

Daily Weather History Graph

Daily Weather History Graph

Search for Another Location

Airport or City:

Trip Planner

Search our weather history database for the weather conditions in past years. The results will help you decide how hot, cold, wet, or windy it might be!

Date:

Astronomy

Aug. 30, 2013 Rise Set
Actual Time 6:26 AM PDT 7:58 PM PDT
Civil Twilight 5:53 AM PDT 8:31 PM PDT
Nautical Twilight 5:12 AM PDT 9:12 PM PDT
Astronomical Twilight 4:28 AM PDT 9:56 PM PDT
Moon 12:53 AM PDT (8/30) 4:34 PM PDT (8/30)
Length of Visible Light 14h 38m
Length of Day
13h 32m
Waning Crescent, 28% of the Moon is Illuminated
Aug 30
Waning Crescent
Sep 5
New
Sep 12
First Quarter
Sep 19
Full
Sep 26
Last Quarter

Hourly Weather History & Observations

Time (PDT) Temp. Dew Point Humidity Pressure Visibility Wind Dir Wind Speed Gust Speed Precip Events Conditions
12:00 AM 60.8 °F 59.0 °F 94% 29.94 in 10.0 mi East 3.5 mph - N/A Rain , Thunderstorm Light Thunderstorms and Rain
12:12 AM 62.6 °F 60.8 °F 94% 29.94 in 12.0 mi ESE 6.9 mph - N/A   Overcast
1:00 AM 60.8 °F 59.0 °F 94% 29.99 in 12.0 mi East 5.8 mph - N/A   Scattered Clouds
2:00 AM 60.8 °F 57.2 °F 88% 30.01 in 15.0 mi Calm Calm - N/A   Scattered Clouds
3:00 AM 59.0 °F 57.2 °F 94% 30.02 in 15.0 mi East 5.8 mph - N/A   Mostly Cloudy
4:00 AM 60.8 °F 57.2 °F 88% 30.04 in 12.0 mi SSE 11.5 mph 20.7 mph N/A Rain Light Rain
4:37 AM 59.0 °F 57.2 °F 94% 30.05 in 15.0 mi ESE 9.2 mph - N/A   Mostly Cloudy
5:00 AM 60 °F 58 °F 89% 30.06 in 15 mi ESE 11.5 mph - -   Partly Cloudy
5:00 AM 60.8 °F 57.2 °F 88% 30.05 in 15.0 mi ESE 10.4 mph - N/A   Mostly Cloudy
6:00 AM 60.8 °F 59.0 °F 94% 30.07 in 15.0 mi East 8.1 mph - N/A   Mostly Cloudy
7:00 AM 60.8 °F 59.0 °F 94% 30.09 in 15.0 mi East 8.1 mph - N/A   Overcast
8:00 AM 60.8 °F 59.0 °F 94% 30.11 in 15.0 mi ESE 9.2 mph - N/A Rain Light Rain
9:00 AM 62.6 °F 60.8 °F 94% 30.12 in 12.0 mi East 10.4 mph - N/A Rain Light Rain
9:55 AM 62.6 °F 60.8 °F 94% 30.14 in 15.0 mi SE 9.2 mph - N/A   Overcast
10:00 AM 62.6 °F 60.8 °F 94% 30.14 in 15.0 mi East 11.5 mph - N/A   Overcast
11:00 AM 67 °F 61 °F 74% 30.16 in 15 mi SE 12.7 mph - -   Partly Cloudy
11:00 AM 66.2 °F 60.8 °F 83% 30.16 in 15.0 mi SE 11.5 mph - N/A   Overcast
12:00 PM 66.2 °F 59.0 °F 78% 30.16 in 15.0 mi SE 8.1 mph - N/A   Overcast
1:00 PM 68.0 °F 59.0 °F 73% 30.16 in 15.0 mi East 5.8 mph - N/A   Overcast
2:00 PM 68.0 °F 60.8 °F 78% 30.17 in 15.0 mi SW 5.8 mph - N/A   Overcast
3:00 PM 68.0 °F 60.8 °F 78% 30.17 in 15.0 mi SW 5.8 mph - N/A   Overcast
4:00 PM 68.0 °F 59.0 °F 73% 30.16 in 20.0 mi NW 3.5 mph - N/A   Mostly Cloudy
5:00 PM 71 °F 58 °F 54% 30.15 in 28 mi NE 2.3 mph - -   Scattered Clouds
5:00 PM 71.6 °F 57.2 °F 60% 30.15 in 30.0 mi ENE 3.5 mph - N/A   Mostly Cloudy
6:00 PM 69.8 °F 60.8 °F 73% 30.14 in 30.0 mi West 4.6 mph - N/A   Scattered Clouds
7:00 PM 68.0 °F 60.8 °F 78% 30.14 in 30.0 mi WNW 5.8 mph - N/A   Mostly Cloudy
8:00 PM 62.6 °F 59.0 °F 88% 30.13 in 30.0 mi WNW 3.5 mph - N/A   Mostly Cloudy
9:00 PM 64.4 °F 57.2 °F 77% 30.14 in 30.0 mi NNE 5.8 mph - N/A   Mostly Cloudy
10:00 PM 62.6 °F 57.2 °F 82% 30.13 in 30.0 mi NNE 5.8 mph - N/A   Scattered Clouds
11:00 PM 60 °F 56 °F 82% 30.13 in 28 mi North 3.5 mph - -   Clear
11:00 PM 59.0 °F 55.4 °F 88% 30.13 in 30.0 mi North 3.5 mph - N/A   Mostly Cloudy